User: anonymous   Login
Location: Unspecified
(0.0000°N, 0.0000°E)
Time: 02:35:11
(UTC+00:00)
Language:

GALILEO 12 (269) - Orbit

View from above orbital plane
View from above orbital plane
View from above satellite
View from above satellite

Ground track
Ground track

The orbit data is extracted from the following two-line orbital elements,

1 41174U 15079A   18320.19032545 +.00000058 +00000-0 +00000-0 0  9995
2 41174 054.9272 177.4375 0003515 323.2754 036.7910 01.70473358017723
Epoch (UTC): 16 November 2018 04:34:04
Eccentricity: 0.0003515
inclination: 54.9272°
perigee height: 23211 km
apogee height: 23232 km
right ascension of ascending node: 177.4375°
argument of perigee: 323.2754°
revolutions per day: 1.70473358
mean anomaly at epoch: 36.7910°
orbit number at epoch: 1772

The dashed part of the orbit path shows where the satellite is in the earth's shadow,  

DLR